Location: Chervonnoye
(48.6000°N, 34.4000°E)
Time: 08:09:47
(UTC+00:00)

NOAA 15 - Pass Details

Date: 02 December 2021
Orbit: 797 x 812 km, 98.7° (Epoch: 26 January)

Event Time Altitude Azimuth Distance (km) Brightness Sun altitude
Rises 18:19:33 0° 226° (SW) 3,320 8.1 -43.7°
Reaches altitude 10° 18:24:31 10° 267° (W) 2,394 7.6 -44.5°
Maximum altitude 18:25:17 10° 276° (W) 2,373 7.6 -44.6°
Drops below altitude 10° 18:26:04 10° 284° (WNW) 2,395 7.6 -44.7°
Sets 18:31:04 0° 326° (NW) 3,330 8.3 -45.5°
